Voltar ao catálogo

CZ-2C DEB

AtivoSSO
NORAD 40263·DEBRIS·🇨🇳 China

Lançado Sep 28, 2014 de Jiuquan Satellite Launch Center

Loading…

Próximas Passagens (próximas 24 horas)

TLE

AtualizadoSource: Space-Track

Época: Sep 14, 2026, 13:44 UTC

1 40263U 14059C   26257.57248296  .00007863  00000-0  72459-3 0  9993
2 40263  98.2021  14.6811 0051554 349.8537  10.1636 14.93975616636417

Acompanhe CZ-2C DEB em tempo real com AllMySat

Download on the App Store